[[{"header":{"parameterUnit":"m.s-1","parameterCategory":2,"la1":30.2991,"la2":30.254,"lo1":-89.0895,"lo2":-89.0444,"dy":0.0017,"dx":0.0017,"nx":28,"ny":28,"refTime":"2025-05-17T21:00:00:Z","depth":"0","parameterNumber":2,"parameterNumberName":"U-component_of_CURRENTS"},"data":[0,0,0,0,0,0,0,0,0,0,0,0,0,0,0,0,0,0,0,0,0,0,0,0,0,0,0,0,0,0,0,0,0,0,0,0,0,0,0,0,0,0,0,0,0,0,0,0,0,0,0,0,0,0,0,0,0,0,-0.2078,-0.2079,0,-0.2166,-0.2167,-0.2167,-0.2124,-0.2122,-0.2119,-0.2118,-0.2071,-0.2072,-0.2072,0,0,0,0,0,0,0,0,0,0,0,0,0,-0.1972,-0.1973,-0.2078,-0.2079,-0.2081,-0.2166,-0.2167,-0.2168,-0.2124,-0.2121,-0.2119,-0.2117,-0.2071,-0.2072,-0.2073,0,0,0,0,0,0,0,0,0,0,0,0,0,-0.2032,-0.1974,-0.2078,-0.2071,-0.2071,-0.2166,-0.2167,-0.2168,-0.2125,-0.2121,-0.2118,-0.2115,-0.2071,-0.2072,-0.2073,-0.2141,0,0,-0.2076,-0.2076,0,0,0,0,0,0,0,0,-0.2029,-0.2036,-0.2071,-0.2072,-0.2072,-0.2133,-0.2113,-0.2153,-0.2125,-0.2102,-0.2117,-0.2114,-0.2083,-0.2083,-0.2105,-0.2139,-0.2137,-0.2076,-0.2077,-0.2077,-0.2077,0,0,0,0,0,0,0,-0.2024,-0.2032,-0.211,-0.2072,-0.2073,-0.2098,-0.2102,-0.2121,-0.2104,-0.2104,-0.2101,-0.2116,-0.2082,-0.2104,-0.2103,-0.2136,-0.2076,-0.2077,-0.2077,-0.2078,-0.2225,-0.2228,0,0,0,0,0,0,-0.2017,-0.2028,-0.2108,-0.2113,-0.2045,-0.2102,-0.2106,-0.2114,-0.2107,-0.2105,-0.2119,-0.2114,-0.2104,-0.2102,-0.2101,-0.2171,-0.2077,-0.2078,-0.2079,-0.2222,-0.2226,-0.2229,0,0,0,0,0,0,-0.2015,-0.2023,-0.2104,-0.2075,-0.2087,-0.2107,-0.2117,-0.2118,-0.2123,-0.212,-0.2114,-0.212,-0.2101,-0.21,-0.2133,-0.2168,-0.2078,-0.2079,-0.2218,-0.2223,-0.2228,-0.2316,0,0,0,0,0,0,-0.2011,-0.2022,-0.2017,-0.2074,-0.2088,-0.2167,-0.212,-0.2122,-0.2139,-0.2133,-0.212,-0.2114,-0.2099,-0.2132,-0.2134,-0.2168,-0.208,-0.2214,-0.222,-0.2226,-0.2309,-0.2323,-0.2336,0,0,0,0,0,-0.2007,-0.2023,-0.2016,-0.2026,-0.2084,-0.2169,-0.218,-0.2181,-0.2142,-0.2168,-0.2162,-0.2113,-0.2172,-0.2136,-0.2137,-0.2172,-0.2211,-0.2218,-0.2226,-0.2303,-0.232,-0.2335,0,0,0,0,0,0,-0.1972,-0.2022,-0.2015,-0.2042,-0.2102,-0.2162,-0.2179,-0.2184,-0.2203,-0.2181,-0.2159,-0.2156,-0.2203,-0.2186,-0.2147,-0.2238,-0.2183,-0.2191,-0.2241,-0.2257,-0.2271,-0.2243,-0.2081,0,0,0,0,0,-0.1966,-0.1979,-0.2049,-0.2065,-0.2096,-0.2135,-0.2162,-0.2176,-0.2206,-0.2209,-0.221,-0.2213,-0.2244,-0.2244,-0.2272,-0.2318,-0.2244,-0.2344,-0.2357,-0.2368,-0.2351,-0.2318,-0.2325,-0.2254,-0.2254,-0.2254,0,0,-0.1949,-0.1981,-0.1983,-0.2057,-0.2091,-0.2167,-0.2142,-0.2195,-0.2249,-0.2203,-0.2257,-0.2264,-0.2272,-0.2332,-0.2349,-0.2312,-0.2344,-0.2377,-0.2386,-0.2363,-0.2326,-0.2332,-0.2338,-0.2259,-0.2258,-0.2257,0,0,-0.1952,-0.1963,-0.1986,-0.2054,-0.2126,-0.2173,-0.2189,-0.2263,-0.228,-0.2356,-0.2335,-0.2361,-0.2411,-0.2422,-0.2433,-0.2537,-0.2426,-0.2549,-0.2578,-0.2548,-0.2552,-0.2555,-0.2426,-0.2416,-0.2543,-0.2543,-0.2543,0,-0.1925,-0.1969,-0.2011,-0.2081,-0.2129,-0.2178,-0.2242,-0.2302,-0.2375,-0.2386,-0.238,-0.2439,-0.2456,-0.2497,-0.2548,-0.2563,-0.2489,-0.2511,-0.256,-0.2561,-0.2562,-0.243,-0.2418,-0.2548,-0.2548,-0.2547,-0.2547,0,-0.1966,-0.2011,-0.2041,-0.2134,-0.2205,-0.2267,-0.2368,-0.2422,-0.2446,-0.2484,-0.2531,-0.256,-0.2574,-0.2608,-0.2617,-0.2644,-0.2566,-0.2585,-0.2505,-0.2574,-0.2431,-0.2417,-0.2556,-0.2554,-0.2552,-0.2551,0,0,-0.1868,-0.2029,-0.2035,-0.208,-0.2232,-0.2284,-0.24,-0.249,-0.2511,-0.2588,-0.2597,-0.2691,-0.2665,-0.2677,-0.2679,-0.2667,-0.2627,-0.2634,-0.263,-0.2477,-0.2472,-0.2238,-0.2199,-0.2649,-0.2648,-0.2648,-0.235,0,-0.1871,-0.1974,-0.2075,-0.2177,-0.2236,-0.2347,-0.2441,-0.2531,-0.2589,-0.2623,-0.2647,-0.2671,-0.2705,-0.2694,-0.2701,-0.2648,-0.2601,-0.2699,-0.2452,-0.2442,-0.2204,-0.2181,-0.2061,-0.1772,-0.2336,-0.2333,-0.2331,0,-0.1866,-0.1935,-0.2022,-0.2166,-0.22,-0.2275,-0.2377,-0.2474,-0.2566,-0.2603,-0.2633,-0.2651,-0.2654,-0.2677,-0.2581,-0.2635,-0.2563,-0.2512,-0.25,-0.2237,-0.2184,-0.1807,-0.1724,-0.183,-0.2309,-0.2311,-0.2312,0,-0.1728,-0.1892,-0.1936,-0.1995,-0.2177,-0.2216,-0.2303,-0.2427,-0.2465,-0.2559,-0.2541,-0.2591,-0.2515,-0.2518,-0.241,-0.2507,-0.2233,-0.2355,-0.2055,-0.2033,-0.1856,-0.1819,-0.182,-0.2272,-0.2273,-0.2274,-0.2275,0,-0.1678,-0.1715,-0.1861,-0.1887,-0.192,-0.2098,-0.2128,-0.2238,-0.2335,-0.2309,-0.2476,-0.2382,-0.2472,-0.2336,-0.2338,-0.2067,-0.2157,-0.2011,-0.1944,-0.1878,-0.1849,-0.1871,-0.1953,-0.2263,-0.2265,-0.2267,-0.2269,0,-0.1519,-0.1628,-0.1672,-0.182,-0.1851,-0.1862,-0.199,-0.2005,-0.2135,-0.2094,-0.2107,-0.215,-0.1948,-0.1942,-0.1832,-0.1851,-0.1675,-0.1599,-0.1451,-0.1373,-0.1277,-0.1366,-0.1174,-0.1141,-0.1282,-0.1274,-0.1268,0,-0.1456,-0.1456,-0.1549,-0.1542,-0.1595,-0.1645,-0.1665,-0.1854,-0.1864,-0.1886,-0.181,-0.1651,-0.146,-0.1186,-0.1156,-0.1025,-0.1212,-0.0918,-0.1132,-0.1196,-0.1251,-0.1356,-0.1356,-0.0917,-0.0909,-0.0902,-0.0896,0,-0.1307,-0.1316,-0.134,-0.1319,-0.1322,-0.1339,-0.1384,-0.1371,-0.1528,-0.1477,-0.131,-0.1166,-0.0862,-0.0621,-0.047,-0.048,-0.0943,-0.0764,-0.0914,-0.1,-0.1033,-0.0991,-0.114,-0.0832,-0.0839,-0.0843,-0.0847,-0.0849,-0.1156,-0.1114,-0.1119,-0.1094,-0.1085,-0.1039,-0.1001,-0.1022,-0.097,-0.0885,-0.0823,-0.0554,-0.0341,-0.0072,-0.0112,-0.0197,-0.0319,-0.036,-0.0458,-0.0557,-0.0549,-0.048,-0.0062,-0.0064,-0.0066,-0.0067,-0.0068,0,-0.1003,-0.0962,-0.0906,-0.0872,-0.08,-0.0859,-0.0816,-0.075,-0.0605,-0.0478,-0.03,0.0037,0.0238,0.0231,0.0192,0.0038,-0.0137,-0.0091,-0.0332,-0.035,-0.0343,-0.036,0.0113,0.0114,0.0114,0.0114,0.0114,0.0114,-0.0912,-0.0817,-0.0796,-0.0632,-0.0593,-0.0477,-0.0429,-0.0307,-0.0209,0.0078,0.0274,0.0415,0.0442,0.027,0.0036,-0.0047,-0.0259,-0.0157,-0.0296,-0.0459,-0.05,-0.0539,-0.0581,-0.0162,-0.0162,-0.029,-0.0292,-0.0293]},{"header":{"parameterUnit":"m.s-1","parameterCategory":2,"la1":30.2991,"la2":30.254,"lo1":-89.0895,"lo2":-89.0444,"dy":0.0017,"dx":0.0017,"nx":28,"ny":28,"refTime":"2025-05-17T21:00:00:Z","depth":"0","parameterNumber":3,"parameterNumberName":"V-component_of_CURRENTS"},"data":[0,0,0,0,0,0,0,0,0,0,0,0,0,0,0,0,0,0,0,0,0,0,0,0,0,0,0,0,0,0,0,0,0,0,0,0,0,0,0,0,0,0,0,0,0,0,0,0,0,0,0,0,0,0,0,0,0,0,0.008,0.008,0,0.0151,0.0152,0.0153,0.02,0.02,0.02,0.0201,0.0274,0.0276,0.0278,0,0,0,0,0,0,0,0,0,0,0,0,0,0.0063,0.0063,0.0079,0.008,0.0081,0.0151,0.0152,0.0153,0.02,0.02,0.02,0.0201,0.0274,0.0276,0.0278,0,0,0,0,0,0,0,0,0,0,0,0,0,0.0097,0.0062,0.0079,0.0112,0.0115,0.015,0.0152,0.0153,0.02,0.02,0.0201,0.0201,0.0273,0.0276,0.0278,0.0289,0,0,0.0287,0.0288,0,0,0,0,0,0,0,0,0.0095,0.0098,0.0106,0.011,0.0114,0.0166,0.0173,0.0198,0.02,0.0169,0.0201,0.0201,0.0237,0.0243,0.0258,0.0293,0.0296,0.0287,0.0289,0.029,0.029,0,0,0,0,0,0,0,0.0092,0.0095,0.0109,0.0107,0.0112,0.015,0.0154,0.0179,0.0202,0.0172,0.0175,0.0181,0.0239,0.0255,0.026,0.0297,0.0287,0.0289,0.0291,0.0292,0.0331,0.033,0,0,0,0,0,0,0.0076,0.0092,0.0107,0.0111,0.0103,0.0149,0.0155,0.015,0.0202,0.021,0.0181,0.0183,0.025,0.0256,0.0262,0.0259,0.029,0.0292,0.0294,0.0331,0.033,0.033,0,0,0,0,0,0,0.0075,0.0076,0.0104,0.0103,0.0109,0.0149,0.0143,0.0151,0.0164,0.0208,0.0216,0.0186,0.0251,0.0259,0.0274,0.0263,0.0293,0.0296,0.0332,0.0331,0.033,0.0264,0,0,0,0,0,0,0.0074,0.0075,0.0066,0.0101,0.0108,0.0106,0.0143,0.0152,0.0167,0.0171,0.0215,0.0222,0.0252,0.027,0.0277,0.0267,0.0298,0.0333,0.0331,0.033,0.0267,0.0261,0.0256,0,0,0,0,0,0.0073,0.0054,0.0064,0.0066,0.0094,0.0105,0.0111,0.0143,0.0167,0.0159,0.0195,0.0221,0.0268,0.0272,0.028,0.0271,0.0333,0.0332,0.033,0.027,0.0262,0.0256,0,0,0,0,0,0,0.0046,0.0058,0.007,0.0057,0.0071,0.0112,0.0112,0.0137,0.0162,0.0169,0.0215,0.0224,0.0234,0.026,0.0263,0.0278,0.0305,0.0305,0.0255,0.0249,0.0244,0.0214,0.03,0,0,0,0,0,0.0033,0.0021,0.0043,0.0033,0.0036,0.0075,0.0085,0.0106,0.0133,0.0145,0.0177,0.0211,0.0236,0.0247,0.0272,0.028,0.0323,0.0279,0.0273,0.0269,0.025,0.028,0.0276,0.0325,0.0325,0.0325,0,0,0.0023,0.0027,0.0022,0.0026,0.0044,0.003,0.0082,0.0089,0.0082,0.0149,0.015,0.0193,0.0234,0.0243,0.025,0.0262,0.029,0.0267,0.0262,0.0246,0.0278,0.0274,0.0269,0.0325,0.0325,0.0325,0,0,-0.0012,-0.0004,-0.0029,-0.003,-0.0017,0.0001,-0.0002,0.003,0.0048,0.0058,0.0106,0.0137,0.0173,0.02,0.0219,0.0197,0.026,0.0209,0.0156,0.0186,0.0182,0.0179,0.0282,0.0288,0.0205,0.0204,0.0204,0,-0.0025,-0.0058,-0.0033,-0.0062,-0.0072,-0.0021,-0.0054,-0.0031,0.0004,0.0009,0.0043,0.0104,0.0148,0.0158,0.0157,0.0183,0.0233,0.0179,0.0178,0.0175,0.0173,0.0279,0.0287,0.0201,0.0201,0.0202,0.0202,0,-0.0082,-0.0111,-0.0125,-0.0152,-0.016,-0.0176,-0.0153,-0.0149,-0.0114,-0.0087,-0.0062,0.001,0.0039,0.0069,0.011,0.0115,0.0171,0.017,0.0193,0.0164,0.0279,0.0288,0.0196,0.0198,0.0198,0.0199,0,0,-0.0101,-0.0157,-0.0162,-0.0199,-0.0211,-0.0224,-0.0244,-0.0248,-0.0259,-0.0203,-0.0199,-0.0137,-0.0087,-0.0062,0.0004,0.0042,0.0105,0.0095,0.0098,0.0195,0.0226,0.0295,0.0313,0.0098,0.0098,0.0098,0.0333,0,-0.0152,-0.0234,-0.0247,-0.0322,-0.0361,-0.0347,-0.0378,-0.0373,-0.0338,-0.0318,-0.0232,-0.0196,-0.014,-0.0104,-0.0067,0.0083,0.0117,0.0045,0.0241,0.0248,0.0308,0.0319,0.0375,0.0589,0.0342,0.0344,0.0345,0,-0.0195,-0.0253,-0.0339,-0.042,-0.0437,-0.0474,-0.0511,-0.0527,-0.049,-0.0462,-0.0415,-0.0328,-0.0226,-0.019,0.0007,-0.0037,0.0063,0.0169,0.018,0.0261,0.033,0.0567,0.0616,0.0652,0.036,0.0359,0.0358,0,-0.0209,-0.0312,-0.0386,-0.0414,-0.0495,-0.0532,-0.0566,-0.0568,-0.0574,-0.0531,-0.0492,-0.0399,-0.0263,-0.0176,0.0076,0.0033,0.0314,0.0281,0.0428,0.0439,0.0532,0.0549,0.0628,0.0344,0.0344,0.0343,0.0343,0,-0.0245,-0.03,-0.0404,-0.0442,-0.0536,-0.0578,-0.0639,-0.0657,-0.0654,-0.062,-0.0556,-0.0441,-0.0254,-0.005,0.0072,0.0337,0.0314,0.0429,0.0487,0.0519,0.0531,0.0601,0.0597,0.0352,0.035,0.0348,0.0347,0,-0.0218,-0.0289,-0.0378,-0.0496,-0.0536,-0.0592,-0.0676,-0.0701,-0.0704,-0.064,-0.0611,-0.0409,-0.0116,0.0076,0.034,0.0408,0.0656,0.0661,0.0733,0.0791,0.0895,0.0886,0.1046,0.1129,0.0837,0.084,0.0843,0,-0.0205,-0.0251,-0.0395,-0.0443,-0.0493,-0.0586,-0.0634,-0.0708,-0.0711,-0.0577,-0.0514,-0.0226,0.0031,0.045,0.0635,0.086,0.0855,0.0985,0.0861,0.0916,0.0949,0.093,0.0986,0.1006,0.1009,0.1012,0.1014,0,-0.017,-0.0218,-0.029,-0.04,-0.0474,-0.0559,-0.0624,-0.0639,-0.065,-0.0566,-0.0317,-0.0097,0.0331,0.0681,0.0941,0.1043,0.1028,0.1047,0.1072,0.1053,0.1071,0.1176,0.0885,0.104,0.1037,0.1035,0.1034,0.1033,-0.0117,-0.0162,-0.0253,-0.035,-0.0427,-0.0483,-0.0506,-0.0507,-0.0465,-0.0267,-0.0108,0.025,0.0639,0.105,0.1143,0.131,0.1263,0.1316,0.1305,0.1285,0.1324,0.1113,0.1329,0.1328,0.1327,0.1327,0.1326,0,-0.0061,-0.0119,-0.0194,-0.0303,-0.0349,-0.0419,-0.0457,-0.0412,-0.0274,-0.0074,0.0191,0.0668,0.1019,0.1259,0.1512,0.1552,0.1538,0.1573,0.1537,0.1585,0.1388,0.1347,0.1614,0.1614,0.1614,0.1614,0.1614,0.1614,-0.0034,-0.0088,-0.0145,-0.0204,-0.026,-0.0277,-0.0275,-0.0155,-0.0029,0.0351,0.0641,0.0905,0.1266,0.1529,0.1705,0.1716,0.1759,0.176,0.1791,0.1601,0.1574,0.1548,0.1507,0.1803,0.1804,0.2008,0.201,0.2011]}],[{"header":{"parameterUnit":"m.s-1","parameterCategory":2,"la1":30.2991,"la2":30.254,"lo1":-89.0895,"lo2":-89.0444,"dy":0.0017,"dx":0.0017,"nx":28,"ny":28,"refTime":"2025-05-17T21:00:00:Z","depth":"2","parameterNumber":2,"parameterNumberName":"U-component_of_CURRENTS"},"data":[0,0,0,0,0,0,0,0,0,0,0,0,0,0,0,0,0,0,0,0,0,0,0,0,0,0,0,0,0,0,0,0,0,0,0,0,0,0,0,0,0,0,0,0,0,0,0,0,0,0,0,0,0,0,0,0,0,0,-0.2273,-0.2273,0,-0.2258,-0.2258,-0.2257,-0.2277,-0.2278,-0.2279,-0.228,-0.2205,-0.2202,-0.2199,0,0,0,0,0,0,0,0,0,0,0,0,0,-0.2133,-0.2136,-0.2273,-0.2273,-0.2273,-0.2258,-0.2258,-0.2257,-0.2277,-0.2278,-0.2279,-0.228,-0.2206,-0.2202,-0.2199,0,0,0,0,0,0,0,0,0,0,0,0,0,-0.2161,-0.2137,-0.2273,-0.2284,-0.2285,-0.2259,-0.2258,-0.2257,-0.2276,-0.2278,-0.2279,-0.2281,-0.2207,-0.2203,-0.2198,-0.2141,0,0,-0.2185,-0.2183,0,0,0,0,0,0,0,0,-0.2159,-0.2165,-0.2282,-0.2283,-0.2284,-0.2274,-0.2181,-0.2216,-0.2276,-0.2276,-0.228,-0.2282,-0.2224,-0.2218,-0.2208,-0.2137,-0.2134,-0.2185,-0.2182,-0.218,-0.2179,0,0,0,0,0,0,0,-0.2158,-0.2165,-0.2264,-0.2282,-0.2283,-0.2226,-0.2233,-0.2187,-0.2237,-0.2276,-0.2278,-0.2282,-0.2224,-0.2212,-0.2206,-0.2133,-0.2185,-0.2181,-0.2178,-0.2176,-0.2027,-0.2026,0,0,0,0,0,0,-0.2175,-0.2165,-0.2264,-0.2264,-0.2228,-0.2228,-0.2236,-0.2273,-0.2239,-0.2237,-0.228,-0.2283,-0.2219,-0.2211,-0.2203,-0.2126,-0.218,-0.2176,-0.2173,-0.2028,-0.2027,-0.2025,0,0,0,0,0,0,-0.2173,-0.2186,-0.2265,-0.2214,-0.2221,-0.2231,-0.2271,-0.2272,-0.2276,-0.2244,-0.224,-0.2286,-0.222,-0.2209,-0.2162,-0.2124,-0.2174,-0.217,-0.203,-0.2028,-0.2026,-0.1976,0,0,0,0,0,0,-0.2169,-0.2185,-0.2228,-0.2217,-0.2224,-0.2238,-0.227,-0.2271,-0.2277,-0.228,-0.2247,-0.2241,-0.222,-0.2169,-0.2158,-0.2119,-0.2166,-0.2031,-0.2029,-0.2026,-0.1979,-0.1972,-0.1966,0,0,0,0,0,-0.2165,-0.22,-0.2231,-0.2243,-0.2281,-0.2237,-0.2233,-0.2242,-0.2276,-0.2256,-0.2245,-0.2243,-0.2146,-0.2164,-0.2152,-0.211,-0.2033,-0.203,-0.2027,-0.1982,-0.1974,-0.1967,0,0,0,0,0,0,-0.2141,-0.2206,-0.2239,-0.2291,-0.2266,-0.2241,-0.2238,-0.2246,-0.2224,-0.2242,-0.222,-0.221,-0.2152,-0.2142,-0.2163,-0.2062,-0.2091,-0.2085,-0.2061,-0.2053,-0.2047,-0.2063,-0.2163,0,0,0,0,0,-0.2164,-0.2227,-0.2232,-0.227,-0.2262,-0.2256,-0.2249,-0.2251,-0.2228,-0.2223,-0.2205,-0.218,-0.2125,-0.2102,-0.2059,-0.2002,-0.2029,-0.197,-0.1964,-0.1959,-0.1964,-0.2006,-0.2005,-0.2015,-0.2015,-0.2015,0,0,-0.216,-0.221,-0.2241,-0.2271,-0.2261,-0.2199,-0.2254,-0.2238,-0.2188,-0.2214,-0.2159,-0.2153,-0.2105,-0.2038,-0.2012,-0.2028,-0.1961,-0.1955,-0.195,-0.1959,-0.2003,-0.2003,-0.2002,-0.2013,-0.2014,-0.2014,0,0,-0.211,-0.2226,-0.2216,-0.2197,-0.2195,-0.2189,-0.2185,-0.2167,-0.217,-0.2122,-0.2121,-0.21,-0.2033,-0.1987,-0.1952,-0.1886,-0.1926,-0.188,-0.1858,-0.1898,-0.1898,-0.1899,-0.1898,-0.1899,-0.1879,-0.1879,-0.1879,0,-0.2079,-0.2104,-0.219,-0.2135,-0.2125,-0.2174,-0.2102,-0.2087,-0.2058,-0.2082,-0.2099,-0.2054,-0.1997,-0.1924,-0.1887,-0.1868,-0.1907,-0.1887,-0.1892,-0.1894,-0.1895,-0.1895,-0.1897,-0.1876,-0.1876,-0.1877,-0.1877,0,-0.198,-0.1997,-0.1979,-0.1957,-0.195,-0.1912,-0.1907,-0.1921,-0.1966,-0.1975,-0.1974,-0.1937,-0.1929,-0.1887,-0.1849,-0.1823,-0.1849,-0.188,-0.1917,-0.1892,-0.1892,-0.1895,-0.1872,-0.1873,-0.1874,-0.1874,0,0,-0.1919,-0.1906,-0.1908,-0.1893,-0.1873,-0.1865,-0.1818,-0.1818,-0.1865,-0.1853,-0.1913,-0.1785,-0.1864,-0.1829,-0.1812,-0.1818,-0.1812,-0.1853,-0.1856,-0.1861,-0.1898,-0.1669,-0.1651,-0.1877,-0.1878,-0.1879,-0.1881,0,-0.1801,-0.17,-0.1735,-0.1657,-0.1611,-0.1682,-0.1658,-0.169,-0.1761,-0.1839,-0.1853,-0.1884,-0.1809,-0.1854,-0.1834,-0.1856,-0.1826,-0.1808,-0.1915,-0.1916,-0.1724,-0.1648,-0.1582,-0.1558,-0.1885,-0.1885,-0.1886,0,-0.1688,-0.1662,-0.155,-0.1588,-0.1583,-0.1548,-0.1656,-0.164,-0.175,-0.1828,-0.189,-0.1957,-0.1939,-0.1925,-0.1902,-0.1916,-0.1878,-0.1878,-0.188,-0.1691,-0.1692,-0.1642,-0.1552,-0.1891,-0.1891,-0.1891,-0.189,0,-0.1632,-0.1565,-0.1506,-0.1489,-0.1494,-0.1515,-0.1548,-0.1647,-0.171,-0.1855,-0.1965,-0.1995,-0.2027,-0.2032,-0.1927,-0.198,-0.1916,-0.2005,-0.1743,-0.1728,-0.1696,-0.1673,-0.1967,-0.1967,-0.1967,-0.1967,-0.1967,0,-0.1515,-0.1483,-0.1487,-0.1447,-0.1466,-0.1496,-0.1572,-0.1632,-0.1771,-0.1842,-0.1961,-0.2,-0.2064,-0.2027,-0.1977,-0.1802,-0.1933,-0.1708,-0.1703,-0.1665,-0.1641,-0.1966,-0.1966,-0.1967,-0.1967,-0.1967,-0.1967,0,-0.1439,-0.1412,-0.1375,-0.1398,-0.1419,-0.1446,-0.1567,-0.1643,-0.1768,-0.1879,-0.1934,-0.2023,-0.1944,-0.1913,-0.1881,-0.1804,-0.1718,-0.1597,-0.1498,-0.1476,-0.1525,-0.1522,-0.1443,-0.1435,-0.1428,-0.1422,-0.1417,0,-0.1369,-0.1329,-0.1358,-0.1371,-0.1375,-0.1438,-0.1494,-0.1619,-0.1707,-0.1829,-0.1875,-0.1852,-0.1754,-0.1595,-0.1481,-0.1348,-0.1418,-0.1208,-0.126,-0.1462,-0.1468,-0.1476,-0.1482,-0.1222,-0.1216,-0.1211,-0.1207,0,-0.1266,-0.1294,-0.1282,-0.1315,-0.1354,-0.1429,-0.1514,-0.157,-0.1696,-0.1721,-0.1682,-0.161,-0.1452,-0.127,-0.1073,-0.0987,-0.1253,-0.1095,-0.1372,-0.1309,-0.1238,-0.1248,-0.1266,-0.1162,-0.1167,-0.117,-0.1173,-0.1174,-0.1227,-0.1218,-0.1228,-0.1258,-0.1326,-0.1394,-0.1412,-0.1468,-0.1479,-0.1461,-0.1423,-0.1223,-0.125,-0.0869,-0.076,-0.0689,-0.0814,-0.0865,-0.089,-0.0918,-0.0835,-0.0749,-0.0567,-0.0568,-0.0569,-0.057,-0.0571,0,-0.1158,-0.1155,-0.1177,-0.121,-0.1249,-0.1337,-0.1412,-0.1389,-0.1288,-0.1169,-0.1027,-0.081,-0.0655,-0.0626,-0.0485,-0.0461,-0.0539,-0.042,-0.0613,-0.0655,-0.0693,-0.0609,-0.0277,-0.0275,-0.0274,-0.0273,0,0,-0.1113,-0.109,-0.1091,-0.1104,-0.1162,-0.1187,-0.1199,-0.1116,-0.1018,-0.0777,-0.0588,-0.0541,-0.0577,-0.0431,-0.0426,-0.0338,-0.0469,-0.0267,-0.0508,-0.0775,-0.0812,-0.0952,-0.0865,0,0,0,0,0]},{"header":{"parameterUnit":"m.s-1","parameterCategory":2,"la1":30.2991,"la2":30.254,"lo1":-89.0895,"lo2":-89.0444,"dy":0.0017,"dx":0.0017,"nx":28,"ny":28,"refTime":"2025-05-17T21:00:00:Z","depth":"2","parameterNumber":3,"parameterNumberName":"V-component_of_CURRENTS"},"data":[0,0,0,0,0,0,0,0,0,0,0,0,0,0,0,0,0,0,0,0,0,0,0,0,0,0,0,0,0,0,0,0,0,0,0,0,0,0,0,0,0,0,0,0,0,0,0,0,0,0,0,0,0,0,0,0,0,0,0.0048,0.005,0,0.026,0.0263,0.0265,0.0391,0.0392,0.0392,0.0392,0.0554,0.0558,0.0562,0,0,0,0,0,0,0,0,0,0,0,0,0,-0.0211,-0.0207,0.0048,0.0051,0.0053,0.0259,0.0263,0.0266,0.0391,0.0392,0.0392,0.0392,0.0553,0.0557,0.0562,0,0,0,0,0,0,0,0,0,0,0,0,0,-0.0057,-0.0206,0.0048,0.0139,0.0149,0.0259,0.0263,0.0267,0.0391,0.0392,0.0392,0.0393,0.0551,0.0557,0.0563,0.0588,0,0,0.0581,0.0583,0,0,0,0,0,0,0,0,-0.0066,-0.0047,0.0123,0.0133,0.0144,0.0298,0.0231,0.0371,0.0391,0.0301,0.0392,0.0393,0.0462,0.0475,0.0517,0.0595,0.0602,0.0581,0.0585,0.0587,0.0589,0,0,0,0,0,0,0,-0.0077,-0.0056,0.0134,0.0126,0.0139,0.0182,0.0204,0.0258,0.0376,0.0309,0.0318,0.0338,0.0468,0.0511,0.0522,0.0605,0.0581,0.0586,0.059,0.0592,0.0725,0.0725,0,0,0,0,0,0,-0.0109,-0.0066,0.0127,0.014,0.0036,0.0186,0.0211,0.025,0.0377,0.0397,0.0338,0.0343,0.0501,0.0515,0.0528,0.0541,0.0587,0.0593,0.0596,0.0725,0.0725,0.0725,0,0,0,0,0,0,-0.0115,-0.0093,0.0119,0.0039,0.0069,0.0189,0.0232,0.0254,0.0301,0.0399,0.0419,0.0363,0.0502,0.052,0.0573,0.0549,0.0596,0.0601,0.0725,0.0725,0.0725,0.0583,0,0,0,0,0,0,-0.0123,-0.0096,-0.0074,0.0037,0.0072,0.0154,0.0232,0.0257,0.0311,0.0321,0.0427,0.0443,0.0504,0.0563,0.0578,0.0558,0.0606,0.0725,0.0725,0.0725,0.0587,0.0578,0.0569,0,0,0,0,0,-0.0133,-0.0117,-0.0074,-0.0051,0.0097,0.0152,0.0173,0.0262,0.0311,0.0312,0.0397,0.044,0.0574,0.0568,0.0586,0.0566,0.0725,0.0725,0.0725,0.0591,0.058,0.057,0,0,0,0,0,0,-0.0219,-0.0099,-0.0051,0.0003,0.0059,0.0172,0.0192,0.0254,0.0328,0.0344,0.0441,0.0461,0.0509,0.0558,0.0549,0.0608,0.0656,0.0659,0.0548,0.0538,0.0529,0.0474,0.061,0,0,0,0,0,-0.0229,-0.0179,-0.0081,-0.0041,-0.0018,0.0087,0.0127,0.0182,0.0261,0.0296,0.0377,0.0459,0.0523,0.0544,0.0617,0.0635,0.0677,0.0638,0.0628,0.062,0.059,0.0636,0.0627,0.0725,0.0725,0.0725,0,0,-0.0252,-0.0178,-0.015,-0.0057,0.0003,0.0018,0.0112,0.0156,0.0172,0.0299,0.0349,0.044,0.0529,0.0564,0.0586,0.0595,0.0618,0.062,0.0612,0.0586,0.0635,0.0625,0.0616,0.0725,0.0725,0.0725,0,0,-0.0294,-0.0213,-0.0198,-0.016,-0.0084,-0.003,-0.0027,0.0078,0.0123,0.0183,0.0282,0.0341,0.0453,0.0493,0.0532,0.0512,0.0585,0.0552,0.0438,0.0483,0.0474,0.0467,0.0511,0.0509,0.0526,0.0525,0.0525,0,-0.0334,-0.028,-0.0195,-0.0185,-0.0158,-0.0064,-0.0069,-0.0022,0.0089,0.0126,0.0176,0.035,0.041,0.0443,0.0429,0.0484,0.0533,0.0465,0.0467,0.0461,0.0456,0.0503,0.0502,0.0518,0.0519,0.052,0.0521,0,-0.0368,-0.0332,-0.033,-0.0279,-0.0255,-0.0241,-0.0178,-0.0143,-0.0064,0.0007,0.0089,0.0189,0.0283,0.0311,0.0357,0.0354,0.041,0.0463,0.0481,0.0436,0.049,0.0492,0.0509,0.0511,0.0513,0.0515,0,0,-0.0438,-0.0366,-0.0365,-0.0354,-0.0296,-0.0281,-0.0277,-0.0229,-0.0211,-0.0106,-0.0063,0.0025,0.0104,0.0149,0.0225,0.0236,0.0231,0.031,0.0316,0.0328,0.0338,0.0413,0.0423,0.0294,0.0294,0.0294,0.0389,0,-0.049,-0.0484,-0.0438,-0.0456,-0.0449,-0.0385,-0.039,-0.034,-0.0267,-0.0209,-0.0108,-0.0035,0.0034,0.0078,0.01,0.0226,0.023,0.02,0.04,0.0405,0.0457,0.0425,0.0357,0.0441,0.0392,0.0392,0.0392,0,-0.0535,-0.0518,-0.0535,-0.0512,-0.0509,-0.0523,-0.0493,-0.0483,-0.0404,-0.0342,-0.026,-0.0151,-0.0101,-0.0037,0.0102,0.0091,0.0177,0.0257,0.0265,0.0378,0.0483,0.0481,0.0447,0.0396,0.0396,0.0396,0.0395,0,-0.0595,-0.0585,-0.0595,-0.0587,-0.0562,-0.0571,-0.0566,-0.0515,-0.0508,-0.0429,-0.0398,-0.0275,-0.0207,-0.0085,0.0113,0.0098,0.0288,0.03,0.0441,0.0449,0.0448,0.0457,0.0354,0.0354,0.0354,0.0353,0.0353,0,-0.0641,-0.0654,-0.0626,-0.0632,-0.0672,-0.0634,-0.0671,-0.064,-0.0603,-0.0591,-0.0477,-0.0422,-0.0219,-0.0057,0.0091,0.0305,0.0284,0.0404,0.0471,0.0402,0.0405,0.0415,0.0421,0.0357,0.0356,0.0355,0.0355,0,-0.0695,-0.067,-0.0691,-0.0685,-0.0695,-0.0726,-0.0754,-0.0773,-0.0733,-0.0716,-0.0696,-0.0529,-0.0303,-0.0064,0.0174,0.0282,0.0476,0.0552,0.0466,0.0519,0.0593,0.0591,0.0658,0.0661,0.0664,0.0666,0.0668,0,-0.0717,-0.0726,-0.0744,-0.0778,-0.0783,-0.0827,-0.0862,-0.084,-0.0853,-0.0763,-0.0752,-0.0536,-0.0354,0.0046,0.0332,0.0625,0.0603,0.0654,0.0585,0.0562,0.062,0.0614,0.0608,0.0529,0.053,0.053,0.0531,0,-0.0768,-0.0772,-0.0792,-0.086,-0.0907,-0.0965,-0.1002,-0.1018,-0.0974,-0.0926,-0.08,-0.0646,-0.0241,0.0088,0.048,0.0622,0.0604,0.0672,0.0685,0.0475,0.0452,0.0506,0.0502,0.0536,0.0535,0.0535,0.0534,0.0534,-0.0816,-0.0845,-0.0875,-0.094,-0.1015,-0.1077,-0.1097,-0.1098,-0.1073,-0.0965,-0.0825,-0.0546,-0.0262,0.0341,0.0549,0.0741,0.0745,0.0696,0.0689,0.0682,0.0662,0.0647,0.0763,0.0764,0.0764,0.0765,0.0765,0,-0.0859,-0.0886,-0.0956,-0.1031,-0.1122,-0.1144,-0.1175,-0.1159,-0.1087,-0.0932,-0.0775,-0.0388,-0.0037,0.0289,0.0602,0.0742,0.0691,0.0713,0.059,0.0586,0.0582,0.0551,0.0625,0.0625,0.0625,0.0625,0,0,-0.0882,-0.0935,-0.0958,-0.1096,-0.1167,-0.1248,-0.1245,-0.1173,-0.1047,-0.0852,-0.061,-0.0342,0.0048,0.0224,0.0393,0.0513,0.0493,0.0508,0.0602,0.0428,0.0421,0.0558,0.0506,0,0,0,0,0]}],[{"header":{"parameterUnit":"m.s-1","parameterCategory":2,"la1":30.2991,"la2":30.254,"lo1":-89.0895,"lo2":-89.0444,"dy":0.0017,"dx":0.0017,"nx":28,"ny":28,"refTime":"2025-05-17T21:00:00:Z","depth":"4","parameterNumber":2,"parameterNumberName":"U-component_of_CURRENTS"},"data":[0,0,0,0,0,0,0,0,0,0,0,0,0,0,0,0,0,0,0,0,0,0,0,0,0,0,0,0,0,0,0,0,0,0,0,0,0,0,0,0,0,0,0,0,0,0,0,0,0,0,0,0,0,0,0,0,0,0,-0.0873,-0.0874,0,-0.094,-0.0941,-0.0942,-0.096,-0.096,-0.0959,-0.0959,-0.0996,-0.0998,-0.0999,0,0,0,0,0,0,0,0,0,0,0,0,0,-0.084,-0.084,-0.0873,-0.0874,-0.0874,-0.094,-0.0941,-0.0942,-0.096,-0.096,-0.0959,-0.0959,-0.0996,-0.0998,-0.0999,0,0,0,0,0,0,0,0,0,0,0,0,0,-0.0875,-0.084,-0.0873,-0.0892,-0.0894,-0.094,-0.0941,-0.0942,-0.096,-0.096,-0.0959,-0.0959,-0.0995,-0.0997,-0.0999,-0.1023,0,0,-0.1006,-0.1006,0,0,0,0,0,0,0,0,-0.0873,-0.0876,-0.0888,-0.089,-0.0893,-0.0941,-0.0943,-0.0968,-0.096,-0.0935,-0.0959,-0.0958,-0.0976,-0.0979,-0.0993,-0.1025,-0.1027,-0.1006,-0.1007,-0.1008,-0.1008,0,0,0,0,0,0,0,-0.087,-0.0874,-0.0899,-0.0889,-0.0892,-0.0924,-0.0928,-0.0948,-0.0957,-0.0937,-0.0939,-0.0947,-0.0977,-0.0992,-0.0994,-0.1027,-0.1006,-0.1008,-0.1009,-0.101,-0.1069,-0.1069,0,0,0,0,0,0,-0.0859,-0.0871,-0.0897,-0.0901,-0.0882,-0.0925,-0.0929,-0.0926,-0.0957,-0.0962,-0.0947,-0.0947,-0.0988,-0.0992,-0.0996,-0.1039,-0.1008,-0.101,-0.1011,-0.1069,-0.1069,-0.107,0,0,0,0,0,0,-0.0857,-0.086,-0.0894,-0.0889,-0.0895,-0.0925,-0.0923,-0.0928,-0.0956,-0.0965,-0.0969,-0.0971,-0.0988,-0.0993,-0.1021,-0.1039,-0.1011,-0.1013,-0.1068,-0.1069,-0.1069,-0.1116,0,0,0,0,0,0,-0.0856,-0.0859,-0.0869,-0.0887,-0.0895,-0.0922,-0.0923,-0.093,-0.0961,-0.0963,-0.0987,-0.0989,-0.0988,-0.1018,-0.1023,-0.1042,-0.1014,-0.1068,-0.1069,-0.1069,-0.1114,-0.1118,-0.1121,0,0,0,0,0,-0.0854,-0.0859,-0.0868,-0.0872,-0.0901,-0.0922,-0.0929,-0.095,-0.0963,-0.0974,-0.0993,-0.0989,-0.1025,-0.1021,-0.1027,-0.1046,-0.1067,-0.1068,-0.1069,-0.1112,-0.1117,-0.1121,0,0,0,0,0,0,-0.0853,-0.0862,-0.0872,-0.0881,-0.0903,-0.0925,-0.0947,-0.0962,-0.099,-0.0997,-0.1005,-0.1009,-0.1032,-0.1035,-0.1029,-0.1061,-0.1042,-0.1044,-0.1073,-0.1077,-0.1081,-0.1093,-0.1016,0,0,0,0,0,-0.0857,-0.0865,-0.0879,-0.0893,-0.0903,-0.0932,-0.0951,-0.0962,-0.0983,-0.0997,-0.1013,-0.1028,-0.1039,-0.1056,-0.1059,-0.1094,-0.1083,-0.1104,-0.1108,-0.1112,-0.1123,-0.1112,-0.1116,-0.1072,-0.1072,-0.1072,0,0,-0.0868,-0.0872,-0.0882,-0.0895,-0.0918,-0.0942,-0.0942,-0.097,-0.1001,-0.0996,-0.1045,-0.1042,-0.1048,-0.1073,-0.1084,-0.1082,-0.1118,-0.1113,-0.1116,-0.1126,-0.1114,-0.1118,-0.1122,-0.1073,-0.1073,-0.1073,0,0,-0.0883,-0.0892,-0.0902,-0.0917,-0.0943,-0.0962,-0.0973,-0.1001,-0.1023,-0.1059,-0.106,-0.1071,-0.1099,-0.1106,-0.1113,-0.1144,-0.113,-0.1143,-0.1187,-0.1177,-0.118,-0.1183,-0.1177,-0.1179,-0.1155,-0.1155,-0.1155,0,-0.0899,-0.0908,-0.0913,-0.0924,-0.095,-0.0973,-0.1,-0.1028,-0.1064,-0.109,-0.1075,-0.1115,-0.1113,-0.1154,-0.1158,-0.1154,-0.1147,-0.1172,-0.1182,-0.1185,-0.1188,-0.118,-0.1182,-0.1158,-0.1157,-0.1157,-0.1157,0,-0.091,-0.0933,-0.0943,-0.0969,-0.0994,-0.1021,-0.1053,-0.1087,-0.1114,-0.1137,-0.1174,-0.117,-0.1191,-0.119,-0.1187,-0.1213,-0.1201,-0.118,-0.1173,-0.1195,-0.1185,-0.1186,-0.1161,-0.116,-0.1159,-0.1159,0,0,-0.0906,-0.0944,-0.0951,-0.0979,-0.102,-0.1042,-0.1099,-0.1153,-0.1195,-0.1216,-0.1263,-0.1273,-0.1266,-0.1273,-0.1266,-0.1266,-0.127,-0.124,-0.1238,-0.1238,-0.1253,-0.117,-0.1163,-0.1252,-0.1252,-0.1252,-0.124,0,-0.0923,-0.0956,-0.0973,-0.1034,-0.1062,-0.1102,-0.1152,-0.1203,-0.124,-0.1286,-0.1297,-0.1321,-0.1301,-0.1303,-0.1305,-0.1278,-0.1275,-0.1276,-0.1228,-0.1227,-0.1154,-0.1162,-0.1254,-0.124,-0.124,-0.1241,-0.1241,0,-0.092,-0.0952,-0.1003,-0.1073,-0.1089,-0.1127,-0.1212,-0.1255,-0.1322,-0.1345,-0.1377,-0.1381,-0.1403,-0.1361,-0.1346,-0.1349,-0.1308,-0.1281,-0.1279,-0.1188,-0.1145,-0.1212,-0.1242,-0.1242,-0.1242,-0.1242,-0.1242,0,-0.0909,-0.0972,-0.102,-0.1041,-0.1118,-0.1158,-0.1203,-0.1274,-0.1306,-0.1377,-0.1389,-0.143,-0.1424,-0.1402,-0.1358,-0.1349,-0.1327,-0.1299,-0.1191,-0.1185,-0.1244,-0.1241,-0.1275,-0.1275,-0.1275,-0.1275,-0.1275,0,-0.0906,-0.0948,-0.1019,-0.1046,-0.1106,-0.1158,-0.1218,-0.1269,-0.1325,-0.134,-0.1406,-0.1406,-0.1428,-0.1421,-0.1382,-0.1295,-0.1342,-0.1201,-0.1174,-0.1264,-0.1263,-0.1245,-0.1242,-0.1274,-0.1274,-0.1274,-0.1274,0,-0.088,-0.0927,-0.0986,-0.1074,-0.1099,-0.1138,-0.1204,-0.1232,-0.1295,-0.1312,-0.1326,-0.1388,-0.1384,-0.1405,-0.137,-0.1296,-0.124,-0.1194,-0.1309,-0.1288,-0.11,-0.11,-0.1066,-0.1063,-0.1061,-0.1059,-0.1057,0,-0.0865,-0.0895,-0.0988,-0.1011,-0.105,-0.1108,-0.1133,-0.1206,-0.1213,-0.1269,-0.1254,-0.13,-0.1325,-0.1229,-0.1266,-0.1223,-0.1189,-0.1143,-0.1106,-0.1101,-0.1079,-0.1082,-0.1085,-0.1053,-0.1052,-0.1051,-0.105,0,-0.0843,-0.0882,-0.0924,-0.0969,-0.1003,-0.103,-0.1061,-0.1055,-0.1107,-0.1178,-0.1131,-0.1128,-0.1139,-0.115,-0.1145,-0.1101,-0.1168,-0.1115,-0.1119,-0.1084,-0.1084,-0.1065,-0.1071,-0.1041,-0.1043,-0.1044,-0.1044,0,-0.0817,-0.0834,-0.0881,-0.0908,-0.0942,-0.0923,-0.0958,-0.094,-0.0955,-0.1002,-0.0982,-0.1041,-0.1108,-0.1085,-0.1071,-0.1049,-0.1009,-0.0923,-0.0936,-0.0947,-0.0916,-0.0899,-0.0777,0,0,0,0,0,-0.0787,-0.079,-0.0811,-0.0825,-0.0846,-0.0857,-0.089,-0.0918,-0.0962,-0.0884,-0.0922,-0.0922,-0.091,-0.0959,-0.0912,-0.1034,-0.1033,-0.0971,-0.0945,-0.0991,-0.1002,-0.0979,0,0,0,0,0,0,-0.0764,-0.0787,-0.0787,-0.0736,-0.0722,-0.0725,-0.0738,-0.077,-0.0731,-0.0786,-0.0805,-0.0831,-0.0872,-0.093,-0.0887,-0.0897,-0.0846,-0.1012,-0.1007,-0.0985,-0.0995,-0.1003,-0.0984,0,0,0,0,0]},{"header":{"parameterUnit":"m.s-1","parameterCategory":2,"la1":30.2991,"la2":30.254,"lo1":-89.0895,"lo2":-89.0444,"dy":0.0017,"dx":0.0017,"nx":28,"ny":28,"refTime":"2025-05-17T21:00:00:Z","depth":"4","parameterNumber":3,"parameterNumberName":"V-component_of_CURRENTS"},"data":[0,0,0,0,0,0,0,0,0,0,0,0,0,0,0,0,0,0,0,0,0,0,0,0,0,0,0,0,0,0,0,0,0,0,0,0,0,0,0,0,0,0,0,0,0,0,0,0,0,0,0,0,0,0,0,0,0,0,-0.0342,-0.0342,0,-0.0315,-0.0314,-0.0314,-0.0291,-0.0291,-0.029,-0.029,-0.0257,-0.0256,-0.0255,0,0,0,0,0,0,0,0,0,0,0,0,0,-0.0356,-0.0356,-0.0342,-0.0342,-0.0341,-0.0315,-0.0314,-0.0314,-0.0291,-0.0291,-0.029,-0.029,-0.0257,-0.0256,-0.0255,0,0,0,0,0,0,0,0,0,0,0,0,0,-0.034,-0.0356,-0.0342,-0.0327,-0.0326,-0.0315,-0.0314,-0.0314,-0.0291,-0.0291,-0.029,-0.029,-0.0257,-0.0256,-0.0255,-0.0253,0,0,-0.0252,-0.0251,0,0,0,0,0,0,0,0,-0.0341,-0.034,-0.033,-0.0328,-0.0327,-0.0307,-0.0307,-0.0293,-0.0291,-0.0303,-0.029,-0.029,-0.0274,-0.0271,-0.0265,-0.0251,-0.025,-0.0251,-0.0251,-0.025,-0.025,0,0,0,0,0,0,0,-0.0342,-0.0341,-0.033,-0.033,-0.0328,-0.0316,-0.0314,-0.0304,-0.0289,-0.0302,-0.03,-0.0299,-0.0273,-0.0266,-0.0264,-0.0249,-0.0251,-0.025,-0.025,-0.0249,-0.0245,-0.0245,0,0,0,0,0,0,-0.0349,-0.0342,-0.0331,-0.0329,-0.0335,-0.0316,-0.0313,-0.0313,-0.0289,-0.0286,-0.0299,-0.0298,-0.0268,-0.0266,-0.0263,-0.0238,-0.025,-0.0249,-0.0249,-0.0244,-0.0245,-0.0245,0,0,0,0,0,0,-0.0349,-0.0348,-0.0332,-0.0336,-0.0333,-0.0317,-0.0315,-0.0312,-0.0307,-0.0288,-0.0284,-0.0298,-0.0268,-0.0265,-0.0252,-0.0238,-0.0249,-0.0248,-0.0243,-0.0244,-0.0245,-0.0203,0,0,0,0,0,0,-0.035,-0.0349,-0.0355,-0.0336,-0.0333,-0.0327,-0.0316,-0.0312,-0.0307,-0.0305,-0.0285,-0.0282,-0.0268,-0.0254,-0.0251,-0.0236,-0.0247,-0.0243,-0.0244,-0.0245,-0.0203,-0.0202,-0.0201,0,0,0,0,0,-0.035,-0.0358,-0.0355,-0.0354,-0.034,-0.0327,-0.0324,-0.0311,-0.0308,-0.0306,-0.029,-0.0282,-0.0259,-0.0253,-0.0249,-0.0234,-0.0242,-0.0244,-0.0245,-0.0204,-0.0202,-0.0201,0,0,0,0,0,0,-0.0367,-0.0356,-0.0352,-0.0357,-0.0344,-0.0324,-0.0326,-0.0315,-0.0302,-0.0303,-0.0282,-0.0277,-0.0267,-0.0264,-0.0258,-0.0242,-0.0253,-0.0253,-0.0223,-0.0221,-0.022,-0.0192,-0.0246,0,0,0,0,0,-0.0374,-0.0379,-0.0362,-0.0367,-0.0363,-0.0346,-0.0341,-0.0331,-0.0316,-0.031,-0.0293,-0.0283,-0.027,-0.0256,-0.0254,-0.0235,-0.0211,-0.023,-0.0228,-0.0227,-0.0205,-0.0137,-0.0125,-0.0249,-0.0249,-0.0249,0,0,-0.0382,-0.0378,-0.0381,-0.0371,-0.0363,-0.0351,-0.0342,-0.0338,-0.0319,-0.0309,-0.0286,-0.0282,-0.0269,-0.025,-0.0245,-0.0241,-0.019,-0.0228,-0.0227,-0.0205,-0.0136,-0.0124,-0.0112,-0.025,-0.025,-0.025,0,0,-0.0395,-0.0397,-0.0401,-0.0392,-0.0382,-0.0367,-0.0366,-0.0347,-0.033,-0.0312,-0.03,-0.027,-0.0269,-0.0228,-0.0214,-0.0204,-0.0194,-0.0232,-0.0182,-0.0117,-0.0104,-0.0093,-0.0081,-0.0069,-0.0218,-0.0218,-0.0218,0,-0.0406,-0.0405,-0.0399,-0.0396,-0.0389,-0.0373,-0.0366,-0.0343,-0.0319,-0.0297,-0.0307,-0.0256,-0.0244,-0.018,-0.018,-0.0193,-0.0183,-0.0182,-0.0109,-0.0097,-0.0086,-0.0076,-0.0063,-0.0216,-0.0217,-0.0217,-0.0217,0,-0.0412,-0.0413,-0.0415,-0.0403,-0.0393,-0.0389,-0.0357,-0.0341,-0.0325,-0.0293,-0.0244,-0.0211,-0.0175,-0.0171,-0.0169,-0.0093,-0.0123,-0.012,-0.0101,-0.007,-0.0064,-0.0051,-0.0214,-0.0214,-0.0215,-0.0215,0,0,-0.0435,-0.0422,-0.0424,-0.0422,-0.0398,-0.0394,-0.0358,-0.0314,-0.0294,-0.0244,-0.0198,-0.014,-0.0117,-0.0099,-0.0082,-0.0013,0.0061,-0.0036,-0.0033,-0.0003,0.0164,0.0122,0.0131,0.0076,0.0079,0.0081,0.0127,0,-0.0442,-0.0442,-0.0426,-0.0422,-0.0419,-0.039,-0.0364,-0.0322,-0.0286,-0.0241,-0.0155,-0.0124,-0.009,-0.0085,0.0003,0.0036,0.0101,0.0046,0.0112,0.0114,0.0093,0.0149,0.0091,0.0136,0.0139,0.0142,0.0143,0,-0.0451,-0.0452,-0.045,-0.0439,-0.0436,-0.0429,-0.0393,-0.0366,-0.0284,-0.0256,-0.0167,-0.0125,-0.0009,-0.0006,0.0148,0.0103,0.0141,0.0179,0.0182,0.0147,0.0098,0.0105,0.0167,0.0165,0.0163,0.0161,0.016,0,-0.0478,-0.0469,-0.0471,-0.0467,-0.0448,-0.0442,-0.043,-0.0372,-0.0356,-0.0267,-0.0255,-0.0102,-0.0066,0.0064,0.0151,0.0144,0.0294,0.0292,0.0299,0.0293,0.0299,0.0287,0.0409,0.0409,0.0409,0.0409,0.0409,0,-0.0489,-0.0497,-0.0492,-0.0498,-0.0513,-0.0483,-0.0487,-0.0452,-0.0403,-0.0385,-0.0271,-0.0233,-0.0049,0.0053,0.0157,0.0267,0.0307,0.0328,0.0325,0.0304,0.0293,0.0305,0.0293,0.041,0.041,0.041,0.0409,0,-0.0516,-0.0509,-0.0525,-0.0523,-0.053,-0.0545,-0.0552,-0.0552,-0.0504,-0.0478,-0.0456,-0.0331,-0.0192,-0.0021,0.0156,0.0234,0.0362,0.0381,0.0319,0.0307,0.031,0.0298,0.0413,0.0412,0.0412,0.0411,0.0411,0,-0.0526,-0.0537,-0.0564,-0.059,-0.0597,-0.0619,-0.0639,-0.0607,-0.0604,-0.054,-0.053,-0.0407,-0.0305,-0.0076,0.0101,0.0317,0.0336,0.038,0.0398,0.0336,0.0322,0.0311,0.03,0.041,0.041,0.041,0.041,0,-0.0553,-0.0569,-0.0587,-0.0644,-0.068,-0.0716,-0.0736,-0.0741,-0.0697,-0.0664,-0.0585,-0.045,-0.0309,-0.0098,0.0058,0.0214,0.0359,0.0376,0.0378,0.0395,0.0334,0.0318,0.0308,0.0408,0.0408,0.0408,0.0409,0,-0.0583,-0.0609,-0.0642,-0.0687,-0.0745,-0.0787,-0.0792,-0.0779,-0.0767,-0.068,-0.0662,-0.0483,-0.0375,-0.0156,-0.0002,0.015,0.0188,0.0223,0.0234,0.0238,0.0182,0.0079,0.0095,0,0,0,0,0,-0.0604,-0.0632,-0.0683,-0.0733,-0.0794,-0.0821,-0.0845,-0.0836,-0.0797,-0.075,-0.0698,-0.0555,-0.032,-0.0217,-0.0069,-0.0015,0.0208,0.0157,0.0252,0.0398,0.04,0.0363,0,0,0,0,0,0,-0.062,-0.0667,-0.0683,-0.0762,-0.0804,-0.0865,-0.088,-0.0855,-0.0814,-0.0755,-0.0623,-0.0546,-0.0307,-0.04,-0.0074,-0.0028,0.0043,0.0277,0.0279,0.0397,0.0399,0.0401,0.0363,0,0,0,0,0]}]]